Weather History for KRVS - January, 2013

Change the Weather History Date:

Monday, January 7, 2013

  Actual Average (KTUL) Record (KTUL)
Temperature  
Mean Temperature 36 °F 37 °F  
Max Temperature 53 °F 47 °F 77 °F (1965)
Min Temperature 18 °F 27 °F -5 °F (1912)
Degree Days  
Heating Degree Days 30 28  
Month to date heating degree days 196  
Since 1 July heating degree days 1624  
Moisture  
Dew Point 22 °F    
Average Humidity 64    
Maximum Humidity 89    
Minimum Humidity 35    
Precipitation  
Precipitation 0.00 in 0.06 in 1.05 in (1935)
Month to date precipitation 0.39  
Year to date precipitation 0.39  
Sea Level Pressure  
Sea Level Pressure 30.27 in    
Wind  
Wind Speed 2 mph (South)    
Max Wind Speed 13 mph    
Max Gust Speed 17 mph    
Visibility 10 miles    
Events      
T = Trace of Precipitation, MM = Missing Value Source: NWS Daily Summary

Daily Weather History Graph

Daily Weather History Graph

Search for Another Location

Airport or City:

Trip Planner

Search our weather history database for the weather conditions in past years. The results will help you decide how hot, cold, wet, or windy it might be!

Date:

Astronomy

Jan. 07, 2013 Rise Set
Actual Time 7:35 AM CST 5:25 PM CST
Civil Twilight 7:06 AM CST 5:54 PM CST
Nautical Twilight 6:35 AM CST 6:25 PM CST
Astronomical Twilight 6:04 AM CST 6:57 PM CST
Moon 3:02 AM CST (1/7) 1:36 PM CST (1/7)
Length of Visible Light 10h 47m
Length of Day
9h 50m
Waning Crescent, 22% of the Moon is Illuminated
Jan 7
Waning Crescent
Jan 11
New
Jan 18
First Quarter
Jan 26
Full
Feb 3
Last Quarter

Hourly Weather History & Observations

Time (CST) Temp. Windchill Dew Point Humidity Pressure Visibility Wind Dir Wind Speed Gust Speed Precip Events Conditions
12:53 AM 23.0 °F - 17.1 °F 78% 30.38 in 10.0 mi Calm Calm - N/A   Clear
1:53 AM 21.0 °F - 16.0 °F 81% 30.38 in 10.0 mi Calm Calm - N/A   Clear
2:53 AM 19.9 °F - 16.0 °F 85% 30.36 in 10.0 mi Calm Calm - N/A   Clear
3:53 AM 19.0 °F - 16.0 °F 88% 30.35 in 10.0 mi Calm Calm - N/A   Clear
4:53 AM 19.9 °F - 16.0 °F 85% 30.33 in 10.0 mi Calm Calm - N/A   Clear
5:53 AM 19.0 °F - 15.1 °F 85% 30.35 in 10.0 mi Calm Calm - N/A   Clear
6:53 AM 18.0 °F - 14.0 °F 84% 30.35 in 10.0 mi Calm Calm - N/A   Clear
7:53 AM 19.9 °F - 17.1 °F 89% 30.35 in 6.0 mi Calm Calm - N/A   Clear
8:53 AM 27.0 °F - 21.0 °F 78% 30.37 in 10.0 mi Calm Calm - N/A   Clear
9:53 AM 36.0 °F 32.1 °F 26.1 °F 67% 30.36 in 10.0 mi SSE 4.6 mph - N/A   Clear
10:53 AM 44.1 °F 39.0 °F 26.1 °F 49% 30.35 in 10.0 mi South 9.2 mph - N/A   Clear
11:53 AM 46.0 °F 40.2 °F 26.1 °F 46% 30.30 in 10.0 mi South 12.7 mph - N/A   Clear
12:53 PM 48.9 °F - 26.1 °F 41% 30.25 in 10.0 mi SSW 12.7 mph 17.3 mph N/A   Clear
1:53 PM 52.0 °F - 26.1 °F 37% 30.20 in 10.0 mi South 11.5 mph - N/A   Clear
2:53 PM 53.1 °F - 26.1 °F 35% 30.19 in 10.0 mi South 9.2 mph - N/A   Clear
3:53 PM 52.0 °F - 25.0 °F 35% 30.18 in 10.0 mi South 8.1 mph - N/A   Clear
5:53 PM 45.0 °F 43.5 °F 26.1 °F 48% 30.19 in 10.0 mi SSW 3.5 mph - N/A   Clear
6:53 PM 42.1 °F - 26.1 °F 53% 30.19 in 10.0 mi Calm Calm - N/A   Clear
7:53 PM 42.1 °F - 26.1 °F 53% 30.17 in 10.0 mi Calm Calm - N/A   Clear
8:53 PM 41.0 °F 39.0 °F 27.0 °F 57% 30.16 in 10.0 mi SSW 3.5 mph - N/A   Clear
9:53 PM 39.9 °F 36.7 °F 27.0 °F 60% 30.16 in 10.0 mi SSW 4.6 mph - N/A   Clear
10:53 PM 35.1 °F - 26.1 °F 70% 30.14 in 10.0 mi Calm Calm - N/A   Clear
11:53 PM 30.9 °F - 25.0 °F 79% 30.14 in 10.0 mi Calm Calm - N/A   Clear